(211143) = 2002 GV100

Discovered at Socorro on 2002-04-10 by LINEAR.

Orbit

Orbit type: Main Belt

Note: WebGL enabled browser required.

epoch2023-02-25.0
epoch JD2460000.5
perihelion date2020-07-24.25834
perihelion JD2459054.75834
argument of perihelion (°)229.97867
ascending node (°)17.78760
inclination (°)3.03180
eccentricity0.0970532
perihelion distance (AU)2.1088462
Tisserand w.r.t. Jupiter3.6
ΔV w.r.t. Earth (km/sec)9.1
semimajor axis (AU)2.3355155
mean anomaly (°)261.15734
mean daily motion (°/day)0.27614030
aphelion distance (AU)2.562
period (years)3.57
P-vector [x]-0.37871314
P-vector [y]-0.83221762
P-vector [z]-0.40495702
Q-vector [x]0.92537306
Q-vector [y]-0.33284644
Q-vector [z]-0.18137793
absolute magnitude17.2
phase slope0.15
uncertainty0
referenceMPO 745323
observations used379
oppositions14
arc length (days)7699
first opposition used2002
last opposition used2023
residual rms (arc-secs)0.81
perturbers coarse indicatorM-v
perturbers precise indicator003Ek
first observation date used2002-03-16.0
last observation date used2023-04-14.0
computer nameMPCLINUX
JD of orbit computation2456966.894936
perihelion JD uncertainty (days)1.0358E-04
argument of perihelion uncertainty (°)7.4516E-05
ascending node uncertainty (°)6.9077E-05
inclination uncertainty (°)6.3402E-06
eccentricity uncertainty 4.7903E-08
perihelion distance uncertainty (AU)1.1496E-07
Minimum Orbit Intersection Distances (in AU)
for orbit epoch: 2460000.5, reference: E2023-G86
Mercury1.64308
Venus1.38462
Earth1.09664
Mars0.55037
Jupiter2.44604
Saturn6.51899
Uranus16.1197
Neptune27.3364

Observations

400 total observations over interval: 2002 03 16.39137 – 2023 04 14.179177
These data are available for download (format description).

Date (UT) J2000 RA J2000 Dec Magn Location Ref
2002 03 16.39137 13 05 53.13 -05 59 45.9 20.2   704 – Lincoln Laboratory ETS, New Mexico MPS 57483
2002 03 16.40527 13 05 52.46 -05 59 42.4 19.8   704 – Lincoln Laboratory ETS, New Mexico MPS 57483
2002 03 16.41925 13 05 51.81 -05 59 40.1 19.8   704 – Lincoln Laboratory ETS, New Mexico MPS 57483
2002 04 05.22629 12 47 58.08 -04 43 42.9 19.1 R 699 – Lowell Observatory-LONEOS MPS 57483
2002 04 05.24297 12 47 57.08 -04 43 40.5   699 – Lowell Observatory-LONEOS MPS 57483
2002 04 05.25960 12 47 56.05 -04 43 35.7   699 – Lowell Observatory-LONEOS MPS 57483
2002 04 05.27643 12 47 55.09 -04 43 31.2   699 – Lowell Observatory-LONEOS MPS 57483
2002 04 10.29746 12 42 59.93 -04 22 23.7 19.0   704 – Lincoln Laboratory ETS, New Mexico MPS 57483
2002 04 10.30968 12 42 59.12 -04 22 21.3 19.4   704 – Lincoln Laboratory ETS, New Mexico MPS 57483
2002 04 10.32121 12 42 58.42 -04 22 18.0 19.5   704 – Lincoln Laboratory ETS, New Mexico MPS 57483
2002 04 10.33282 12 42 57.75 -04 22 15.6 19.3   704 – Lincoln Laboratory ETS, New Mexico MPS 57483
2002 04 12.29981 12 41 05.11 -04 14 10.6 19.6   704 – Lincoln Laboratory ETS, New Mexico MPS 57483
2002 04 12.31425 12 41 04.19 -04 14 07.8 19.7   704 – Lincoln Laboratory ETS, New Mexico MPS 57483
2002 04 12.32953 12 41 03.41 -04 14 04.9 19.6   704 – Lincoln Laboratory ETS, New Mexico MPS 57483
2002 04 12.34507 12 41 02.44 -04 14 00.6 19.4   704 – Lincoln Laboratory ETS, New Mexico MPS 57483
2002 04 14.22191 12 39 17.65 -04 06 35.5 20.3   704 – Lincoln Laboratory ETS, New Mexico MPS 57483
2002 04 14.24969 12 39 15.92 -04 06 28.1 19.9   704 – Lincoln Laboratory ETS, New Mexico MPS 57483
2002 04 14.26359 12 39 15.16 -04 06 25.5 20.1   704 – Lincoln Laboratory ETS, New Mexico MPS 57483
2003 09 18.41684 00 12 49.51 -00 23 57.1 19.6   644 – Palomar Mountain/NEAT MPS 85203
2003 09 18.43976 00 12 48.13 -00 24 03.5 19.6   644 – Palomar Mountain/NEAT MPS 85203
2003 09 18.46220 00 12 46.81 -00 24 10.3 19.2   644 – Palomar Mountain/NEAT MPS 85203
2003 09 22.23401 00 09 07.41 -00 42 34.3 19.7 R 699 – Lowell Observatory-LONEOS MPS 85203
2003 09 22.25397 00 09 06.11 -00 42 39.8   699 – Lowell Observatory-LONEOS MPS 85203
2003 09 22.27395 00 09 04.81 -00 42 46.6   699 – Lowell Observatory-LONEOS MPS 85203
2003 09 22.29395 00 09 03.75 -00 42 50.5   699 – Lowell Observatory-LONEOS MPS 85203
2003 09 26.283540 00 05 09.207 -01 02 12.69 20.05 V 645 – Apache Point-Sloan Digital Sky Survey MPS 136948
2003 09 26.287012 00 05 09.000 -01 02 13.73 20.69   645 – Apache Point-Sloan Digital Sky Survey MPS 136948
2003 09 28.291620 00 03 12.067 -01 11 45.35 20.13 V 645 – Apache Point-Sloan Digital Sky Survey MPS 136948
2003 09 28.295092 00 03 11.856 -01 11 46.34 20.78   645 – Apache Point-Sloan Digital Sky Survey MPS 136948
2003 10 24.10012 23 43 13.20 -02 38 50.9 21.6 V 691 – Steward Observatory, Kitt Peak-Spacewatch MPS 87978
2003 10 24.12837 23 43 12.29 -02 38 53.6 21.6 V 691 – Steward Observatory, Kitt Peak-Spacewatch MPS 87978
2003 10 24.15516 23 43 11.49 -02 38 56.1 22.1 V 691 – Steward Observatory, Kitt Peak-Spacewatch MPS 87978
2007 10 11.45833 03 42 53.43 +21 43 35.0 21.3 V 691 – Steward Observatory, Kitt Peak-Spacewatch MPS 223347
2007 10 11.47603 03 42 52.82 +21 43 35.3 21.1 V 691 – Steward Observatory, Kitt Peak-Spacewatch MPS 223347
2007 10 11.49372 03 42 52.27 +21 43 35.1 21.3 V 691 – Steward Observatory, Kitt Peak-Spacewatch MPS 223347
2007 10 15.43844 03 40 38.50 +21 42 44.3 20.5 V 691 – Steward Observatory, Kitt Peak-Spacewatch MPS 223347
2007 10 15.45615 03 40 37.76 +21 42 43.2 20.6 V 691 – Steward Observatory, Kitt Peak-Spacewatch MPS 223347
2007 10 15.47387 03 40 37.05 +21 42 43.5 20.5 V 691 – Steward Observatory, Kitt Peak-Spacewatch MPS 223347
2007 10 31.26649 03 27 34.77 +21 22 35.3 20.0 V G96 – Mt. Lemmon Survey MPS 223347
2007 10 31.27488 03 27 34.27 +21 22 33.8 20.5 V G96 – Mt. Lemmon Survey MPS 223347
2007 10 31.28322 03 27 33.76 +21 22 33.4 20.4 V G96 – Mt. Lemmon Survey MPS 223347
2007 10 31.29163 03 27 33.26 +21 22 32.3 20.5 V G96 – Mt. Lemmon Survey MPS 223347
2007 11 04.26928 03 23 28.78 +21 13 20.5   691 – Steward Observatory, Kitt Peak-Spacewatch MPS 224670
2007 11 04.28697 03 23 27.62 +21 13 18.0   691 – Steward Observatory, Kitt Peak-Spacewatch MPS 224670
2007 11 04.30466 03 23 26.48 +21 13 15.2   691 – Steward Observatory, Kitt Peak-Spacewatch MPS 224670
2007 11 08.15288 03 19 19.66 +21 02 56.0   691 – Steward Observatory, Kitt Peak-Spacewatch MPS 224670
2007 11 08.17356 03 19 18.30 +21 02 52.7   691 – Steward Observatory, Kitt Peak-Spacewatch MPS 224670
2007 11 08.19127 03 19 17.11 +21 02 49.8   691 – Steward Observatory, Kitt Peak-Spacewatch MPS 224670
2009 02 13.42500 11 52 10.72 +03 55 00.3 20.3 V 691 – Steward Observatory, Kitt Peak-Spacewatch MPS 276454
2009 02 13.44307 11 52 10.15 +03 55 03.5 20.3 V 691 – Steward Observatory, Kitt Peak-Spacewatch MPS 276454
2009 02 13.46114 11 52 09.55 +03 55 06.2 20.4 V 691 – Steward Observatory, Kitt Peak-Spacewatch MPS 276454
2009 02 21.28623 11 47 17.56 +04 22 27.7   691 – Steward Observatory, Kitt Peak-Spacewatch MPS 277536
2009 02 21.30434 11 47 16.66 +04 22 32.3   691 – Steward Observatory, Kitt Peak-Spacewatch MPS 277536
2009 02 21.32245 11 47 15.82 +04 22 37.1   691 – Steward Observatory, Kitt Peak-Spacewatch MPS 277536
2009 02 28.28336 11 41 39.58 +04 52 53.3   691 – Steward Observatory, Kitt Peak-Spacewatch MPS 278568
2009 02 28.30099 11 41 38.61 +04 53 00.1   691 – Steward Observatory, Kitt Peak-Spacewatch MPS 278568
2009 02 28.31861 11 41 37.72 +04 53 05.4   691 – Steward Observatory, Kitt Peak-Spacewatch MPS 278568
2009 03 02.29656 11 39 51.80 +05 02 22.3 20.3   704 – Lincoln Laboratory ETS, New Mexico MPS 278568
2009 03 02.30909 11 39 51.06 +05 02 26.2 19.9   704 – Lincoln Laboratory ETS, New Mexico MPS 278568
2009 03 02.33327 11 39 49.67 +05 02 36.6 19.3   704 – Lincoln Laboratory ETS, New Mexico MPS 278568
2009 03 14.93962 11 27 35.07 +06 03 49.0 19.3 V J75 – OAM Observatory, La Sagra MPS 281218
2009 03 14.95287 11 27 34.26 +06 03 52.8 18.8 V J75 – OAM Observatory, La Sagra MPS 281218
2009 03 14.96618 11 27 33.44 +06 03 56.7 19.2 V J75 – OAM Observatory, La Sagra MPS 281218
2010 05 31.649514 22 55 50.82 -10 05 36.3   C51 – WISE MPS 331823
2010 06 01.178729 22 56 27.12 -10 02 13.5   C51 – WISE MPS 331823
2010 06 01.244944 22 56 31.61 -10 01 46.7   C51 – WISE MPS 331823
2010 06 01.44334 22 56 45.10 -10 00 31.3   C51 – WISE MPS 331823
2010 06 01.509552 22 56 49.690 -10 00 07.31   C51 – WISE MPS 903514
2010 06 01.57564 22 56 54.04 -09 59 42.0   C51 – WISE MPS 331823
2010 06 01.774160 22 57 07.466 -09 58 26.11   C51 – WISE MPS 903514
2010 06 02.170944 22 57 34.344 -09 55 56.03   C51 – WISE MPS 903514
2010 09 01.32413 23 02 18.81 -09 38 12.4 19.8   704 – Lincoln Laboratory ETS, New Mexico MPS 347008
2010 09 01.33564 23 02 18.14 -09 38 14.4 20.1   704 – Lincoln Laboratory ETS, New Mexico MPS 347008
2010 09 01.34760 23 02 17.39 -09 38 18.6 20.4   704 – Lincoln Laboratory ETS, New Mexico MPS 347008
2010 09 01.35908 23 02 16.58 -09 38 20.5 20.2   704 – Lincoln Laboratory ETS, New Mexico MPS 347008
2010 09 02.29304 23 01 22.08 -09 42 46.9 19.8 V G96 – Mt. Lemmon Survey MPS 347008
2010 09 02.29990 23 01 21.64 -09 42 48.9 19.8 V G96 – Mt. Lemmon Survey MPS 347008
2010 09 02.30676 23 01 21.25 -09 42 50.7 19.7 V G96 – Mt. Lemmon Survey MPS 347008
2010 09 02.31370 23 01 20.85 -09 42 52.7 19.8 V G96 – Mt. Lemmon Survey MPS 347008
2010 09 10.86926 22 52 59.64 -10 21 00.9 19.4 V J75 – OAM Observatory, La Sagra MPS 349280
2010 09 10.88215 22 52 58.87 -10 21 03.5 19.9 V J75 – OAM Observatory, La Sagra MPS 349280
2010 09 10.89506 22 52 58.12 -10 21 07.6 19.3 V J75 – OAM Observatory, La Sagra MPS 349280
2011 12 31.19905 06 35 28.34 +28 05 28.8 20.5 V 691 – Steward Observatory, Kitt Peak-Spacewatch MPS 406932
2011 12 31.21427 06 35 27.21 +28 05 29.8 20.4 V 691 – Steward Observatory, Kitt Peak-Spacewatch MPS 406932
2011 12 31.22949 06 35 26.07 +28 05 31.1 20.7 V 691 – Steward Observatory, Kitt Peak-Spacewatch MPS 406932
2012 01 06.17740 06 28 22.49 +28 10 43.8 20.5 V 691 – Steward Observatory, Kitt Peak-Spacewatch MPS 406932
